Torna al catalogo

STARLINK-35409

AttivoComunicazioniVLEO
NORAD 66196·PAYLOAD·🇺🇸 United States

Lanciato Oct 26, 2025 da Cape Canaveral Space Force Station

Loading…

Prossimi Passaggi (prossime 24 ore)

TLE

AggiornatoSource: CelesTrak SupGP

Epoca: Sep 14, 2026, 23:15 UTC

1 66196C 25243V   26257.96923611  .00031352  00000+0  92654-3 0  2572
2 66196  53.1595  85.3160 0001291  88.1294 285.2080 15.34366972    18

Traccia STARLINK-35409 in tempo reale con AllMySat

Download on the App Store